{"data":{"norad_id":58810,"intl_designator":"2023-185T","name":"NANOFF A","alt_names":[],"object_type":"PAYLOAD","status":"ACTIVE","operator":null,"country":"GER","launch_date":"2023-12-01","launch_site_code":"AFWTR","launch_vehicle":null,"mission":null,"orbit_class":"UNKNOWN","rcs_meters":null,"size_class":null,"mass_kg":null,"dimensions":null,"purposes":[],"wikipedia_slug":null,"has_3d_model":false,"image_url":null,"decayed_at":null,"tle_current":{"epoch":"2026-09-22T23:11:16.286208Z","epoch_age_seconds":36949,"freshness":"FRESH","line1":"1 58810U 23185T   26265.96616072  .00001823  00000+0  10745-3 0  9992","line2":"2 58810  97.5167 332.0191 0009299 339.8910  20.1954 15.12815510147822","mean_motion":15.1281551,"eccentricity":0.0009299,"inclination_deg":97.5167,"raan_deg":332.0191,"arg_perigee_deg":339.891,"mean_anomaly_deg":20.1954,"bstar":0.00010745,"rev_number":14782,"period_min":95.186755455726,"perigee_km":521.19680184051,"apogee_km":534.04012585218,"semimajor_km":6905.7554638463,"source":"CELESTRAK","updated_at":"2026-09-23T09:00:19.005079Z"}}}